Back to catalog

FENGYUN 1C DEB

AliveSSO
NORAD 31639·DEBRIS·🇨🇳 China

Launched May 10, 1999 from Taiyuan Satellite Launch Center

Loading…

Next Passes (next 24 hours)

TLE

FreshSource: Space-Track

Epoch: Sep 12, 2026, 01:29 UTC

1 31639U 99025CAV 26255.06223589  .00000078  00000-0  92702-4 0  9991
2 31639  98.7658 188.1096 0161825 122.8941 302.6945 13.85263477974724

Track FENGYUN 1C DEB in real time with AllMySat

Download on the App Store